Find Starlink 2356

NORAD ID: 47896 Int'l Des: 2021-021 Owner: SPXS Country: US Constellation: starlink operational
LEOCIRCULAR

Current View

Loading 3D Globe...

About Starlink 2356

Description loading...

Upcoming Passes

Passes for default location (London). Set your location on the main map for personalized predictions.

Altitude History

Loading altitude history...

Two-Line Element Set

1 47896U 21021AN 26146.60162445 .00001906 00000-0 73124-4 0 9994
2 47896 53.1604 278.5835 0001212 83.4141 276.6998 15.31716402287958
Epoch: May 26, 2026 • Age: 7 hours

Current Status

Altitude 489.7 km
Velocity 7.62 km/s
Sub-Earth Point -52.29°S, 40.39°W
Launch Date Mar 14, 2021
Age 5.1 years
Type internet

Technical Details

Classification Payload
Mass 260.00 kg
Dry Mass 248.00 kg
Total Mass 260.00 kg
Length 0.20 m
Diameter 2.80 m
Span 9.00 m
Shape Box + pan
Manufacturer SPXS
Bus Type Starlink
Phase Status In Orbit
Owner/State SPXS/US

Most Searched